Regional Weather Roundup
Issued by NWS

Home | Current Version | Previous Version | Graphics & Text | Print | Product List | Glossary On
Versions: 1 2 3 4 5 6 7 8 9 10 11 12 13 14 15 16 17 18 19 20 21 22 23 24 25 26 27 28 29 30 31 32 33 34 35 36 37 38 39 40 41 42 43 44 45 46 47 48 49 50
000
ASUS43 KBIS 272259
RWRND

NORTH DAKOTA REGIONAL WEATHER ROUNDUP
NATIONAL WEATHER SERVICE BISMARCK ND
500 PM CST THU NOV 27 2014

NOTE: "FAIR" INDICATES FEW OR NO CLOUDS BELOW 12,000 FEET WITH NO
SIGNIFICANT WEATHER AND/OR OBSTRUCTIONS TO VISIBILITY.


NDZ001>003-009>011-017-280000-
NORTHWEST NORTH DAKOTA

CITY           SKY/WX    TMP DP  RH WIND       PRES   REMARKS
WILLISTON      CLOUDY    20  15  81 E12       29.85S WCI   8
MINOT          LGT SNOW  13   9  84 E14       29.98F VSB 3/4 WCI  -2
MINOT AFB      CLOUDY    14  12  92 SE16      29.99F BLWGSNOWWCI  -2
$$

NDZ018>021-031>035-040>046-280000-
SOUTHWEST NORTH DAKOTA

CITY           SKY/WX    TMP DP  RH WIND       PRES   REMARKS
BISMARCK       LGT SNOW  12   9  87 SE17      30.01F FOG     WCI  -5
GARRISON         N/A     13  11  92 SE16      29.94F WCI  -3
HETTINGER ARPT CLOUDY    24  19  81 S12       29.87F WCI  13
$$

NDZ004>008-012>016-024-026-027-054-280000-
NORTHEAST NORTH DAKOTA

CITY           SKY/WX    TMP DP  RH WIND       PRES   REMARKS
GRAND FORKS    CLOUDY     4  -4  69 S12       30.28F WCI -12
DEVILS LAKE    CLOUDY     7  -8  51 SE15G21   30.11F WCI -11
$$

NDZ022-023-025-028>030-036>039-047>053-280000-
SOUTHEAST NORTH DAKOTA

CITY           SKY/WX    TMP DP  RH WIND       PRES   REMARKS
FARGO          CLOUDY     9  -2  61 SE14      30.28F WCI  -7
JAMESTOWN      MIX PCPN   6  -1  73 SE13      30.14F WCI -10
$$



USA.gov is the U.S. government's official web portal to all federal, state and local government web resources and services.